CPA527 RJAA-VHHH

Flight info

Callsign CPA527
Flight time N/A
Altitude 40000
Route PIGOK Y50 IGMON A1 ELATO V522 ABBEY
Aircraft A359/H-SDE2E3GHIJ3J4J5LM1ORWXY/LB1D1

Departure

Time N/A
Airport Narita International Airport (RJAA)

Arrival

Time 2026-05-03 22:30
Airport Hong Kong International Airport (VHHH)
Time Latitude Longitude Altitude Speed Heading
2026-05-03 20:15 29.49361 127.32978 40030 ft 401 kts 236°
2026-05-03 20:15 29.45906 127.27950 40032 ft 401 kts 236°
2026-05-03 20:16 29.42434 127.22938 40032 ft 401 kts 236°
2026-05-03 20:16 29.38961 127.17936 40035 ft 401 kts 236°
2026-05-03 20:17 29.35485 127.12935 40042 ft 401 kts 236°
2026-05-03 20:17 29.32005 127.07930 40041 ft 402 kts 236°
2026-05-03 20:18 29.28524 127.02930 40037 ft 402 kts 236°
2026-05-03 20:18 29.25036 126.97926 40042 ft 401 kts 236°
2026-05-03 20:19 29.21550 126.92932 40043 ft 401 kts 236°
2026-05-03 20:19 29.18068 126.87948 40040 ft 401 kts 236°
2026-05-03 20:20 29.14579 126.82962 40041 ft 401 kts 236°
2026-05-03 20:20 29.11091 126.77982 40031 ft 401 kts 236°
2026-05-03 20:21 29.07599 126.73002 40042 ft 401 kts 236°
2026-05-03 20:21 29.04107 126.68028 40042 ft 401 kts 236°
2026-05-03 20:22 29.00640 126.63097 40042 ft 401 kts 236°
2026-05-03 20:22 28.97146 126.58135 40041 ft 401 kts 236°
2026-05-03 20:23 28.93589 126.53216 40045 ft 402 kts 234°
2026-05-03 20:23 28.89959 126.48367 40046 ft 402 kts 234°
2026-05-03 20:24 28.86329 126.43514 40051 ft 402 kts 234°
2026-05-03 20:24 28.82709 126.38651 40051 ft 402 kts 234°
2026-05-03 20:25 28.79097 126.33792 40050 ft 402 kts 234°
2026-05-03 20:25 28.75479 126.28929 40048 ft 402 kts 234°
2026-05-03 20:26 28.71861 126.24074 40054 ft 402 kts 234°
2026-05-03 20:26 28.68233 126.19209 40049 ft 403 kts 234°
2026-05-03 20:27 28.64599 126.14345 40049 ft 403 kts 234°
2026-05-03 20:27 28.61001 126.09452 40052 ft 403 kts 235°
2026-05-03 20:28 28.57503 126.04466 40055 ft 403 kts 236°
2026-05-03 20:28 28.54009 125.99482 40055 ft 403 kts 236°
2026-05-03 20:29 28.50492 125.94509 40056 ft 404 kts 236°
2026-05-03 20:29 28.46961 125.89542 40056 ft 404 kts 235°
2026-05-03 20:30 28.43422 125.84573 40058 ft 404 kts 235°
2026-05-03 20:30 28.39882 125.79607 40056 ft 405 kts 235°
2026-05-03 20:31 28.36334 125.74634 40058 ft 405 kts 235°
2026-05-03 20:31 28.32808 125.69698 40056 ft 406 kts 235°
2026-05-03 20:32 28.29252 125.64725 40061 ft 406 kts 235°
2026-05-03 20:32 28.25689 125.59749 40061 ft 407 kts 235°
2026-05-03 20:33 28.22123 125.54775 40067 ft 407 kts 235°
2026-05-03 20:33 28.18550 125.49797 40062 ft 407 kts 235°
2026-05-03 20:34 28.14970 125.44814 40064 ft 407 kts 235°
2026-05-03 20:34 28.11388 125.39836 40067 ft 408 kts 236°
2026-05-03 20:35 28.07796 125.34848 40069 ft 409 kts 236°
2026-05-03 20:35 28.04196 125.29856 40065 ft 410 kts 236°
2026-05-03 20:36 28.00588 125.24857 40070 ft 410 kts 236°
2026-05-03 20:36 27.96971 125.19853 40068 ft 411 kts 236°
2026-05-03 20:37 27.93352 125.14852 40072 ft 411 kts 236°
2026-05-03 20:37 27.89724 125.09844 40071 ft 411 kts 236°
2026-05-03 20:38 27.86095 125.04841 40070 ft 412 kts 236°
2026-05-03 20:38 27.82460 124.99835 40074 ft 412 kts 236°
2026-05-03 20:39 27.78818 124.94826 40070 ft 413 kts 236°
2026-05-03 20:39 27.75176 124.89822 40073 ft 413 kts 236°
2026-05-03 20:40 27.71522 124.84807 40070 ft 413 kts 236°
2026-05-03 20:40 27.67886 124.79824 40073 ft 414 kts 236°
2026-05-03 20:41 27.64224 124.74810 40074 ft 414 kts 236°
2026-05-03 20:41 27.60529 124.69759 40073 ft 415 kts 236°
2026-05-03 20:42 27.56886 124.64775 40088 ft 415 kts 236°
2026-05-03 20:42 27.53219 124.59760 40067 ft 415 kts 236°
2026-05-03 20:43 27.49547 124.54746 40066 ft 415 kts 236°
2026-05-03 20:43 27.45869 124.49732 40081 ft 415 kts 236°
2026-05-03 20:44 27.42187 124.44718 40077 ft 415 kts 236°
2026-05-03 20:44 27.38502 124.39706 40073 ft 416 kts 236°
2026-05-03 20:45 27.34815 124.34696 40076 ft 416 kts 236°
2026-05-03 20:45 27.31128 124.29693 40073 ft 416 kts 236°
2026-05-03 20:46 27.27436 124.24688 40068 ft 416 kts 236°
2026-05-03 20:46 27.23743 124.19688 40073 ft 416 kts 236°
2026-05-03 20:47 27.20051 124.14695 40072 ft 416 kts 236°
2026-05-03 20:47 27.16354 124.09699 40069 ft 416 kts 235°
2026-05-03 20:48 27.12653 124.04706 40069 ft 416 kts 235°
2026-05-03 20:48 27.08947 123.99712 40068 ft 416 kts 235°
2026-05-03 20:49 27.05224 123.94733 40070 ft 417 kts 235°
2026-05-03 20:49 27.01476 123.89770 40073 ft 417 kts 235°
2026-05-03 20:50 26.97730 123.84809 40072 ft 417 kts 234°
2026-05-03 20:50 26.93980 123.79842 40069 ft 417 kts 234°
2026-05-03 20:51 26.90234 123.74881 40069 ft 417 kts 234°
2026-05-03 20:51 26.86508 123.69953 40069 ft 417 kts 234°
2026-05-03 20:52 26.82753 123.64991 40069 ft 418 kts 234°
2026-05-03 20:52 26.78995 123.60033 40073 ft 418 kts 234°
2026-05-03 20:53 26.75227 123.55065 40065 ft 418 kts 234°
2026-05-03 20:53 26.71462 123.50109 40069 ft 419 kts 234°
2026-05-03 20:54 26.67687 123.45143 40070 ft 419 kts 234°
2026-05-03 20:54 26.62026 123.37704 40068 ft 419 kts 234°
2026-05-03 20:55 26.58245 123.32748 40071 ft 419 kts 234°
2026-05-03 20:55 26.54460 123.27794 40074 ft 420 kts 234°
2026-05-03 20:56 26.50670 123.22836 40074 ft 420 kts 234°
2026-05-03 20:56 26.46874 123.17875 40073 ft 420 kts 234°
2026-05-03 20:57 26.43072 123.12911 40075 ft 421 kts 234°
2026-05-03 20:57 26.39263 123.07945 40070 ft 421 kts 234°
2026-05-03 20:58 26.35454 123.02984 40070 ft 421 kts 234°
2026-05-03 20:58 26.31638 122.98028 40069 ft 421 kts 234°
2026-05-03 20:59 26.27820 122.93070 40070 ft 421 kts 234°
2026-05-03 20:59 26.24003 122.88112 40069 ft 421 kts 234°
2026-05-03 21:00 26.21474 122.84831 40064 ft 421 kts 234°
2026-05-03 21:00 26.17010 122.79049 40069 ft 421 kts 234°
2026-05-03 21:01 26.12568 122.73303 40069 ft 421 kts 234°
2026-05-03 21:01 26.09365 122.69165 40067 ft 421 kts 234°
2026-05-03 21:02 26.05540 122.64227 40063 ft 422 kts 234°
2026-05-03 21:02 26.01707 122.59286 40065 ft 421 kts 234°
2026-05-03 21:03 25.97876 122.54353 40065 ft 421 kts 234°
2026-05-03 21:03 25.94046 122.49425 40062 ft 421 kts 234°
2026-05-03 21:04 25.90211 122.44503 40059 ft 422 kts 234°
2026-05-03 21:04 25.86375 122.39570 40059 ft 422 kts 234°
2026-05-03 21:05 25.82532 122.34635 40059 ft 423 kts 234°
2026-05-03 21:05 25.78684 122.29702 40058 ft 423 kts 234°
2026-05-03 21:06 25.74856 122.24801 40057 ft 423 kts 234°
2026-05-03 21:06 25.71001 122.19872 40058 ft 423 kts 234°
2026-05-03 21:07 25.67146 122.14947 40063 ft 423 kts 234°
2026-05-03 21:07 25.63282 122.10015 40060 ft 424 kts 234°
2026-05-03 21:08 25.59417 122.05083 40058 ft 424 kts 234°
2026-05-03 21:08 25.55547 122.00138 40060 ft 425 kts 234°
2026-05-03 21:09 25.51666 121.95201 40056 ft 425 kts 234°
2026-05-03 21:09 25.47778 121.90264 40059 ft 425 kts 233°
2026-05-03 21:10 25.43889 121.85331 40054 ft 426 kts 233°
2026-05-03 21:10 25.39992 121.80393 40050 ft 426 kts 233°
2026-05-03 21:11 25.36091 121.75457 40054 ft 426 kts 233°
2026-05-03 21:11 25.32184 121.70517 40061 ft 427 kts 233°
2026-05-03 21:12 25.28274 121.65579 40069 ft 427 kts 233°
2026-05-03 21:12 25.24355 121.60635 40074 ft 428 kts 233°
2026-05-03 21:13 25.20425 121.55682 40086 ft 430 kts 233°
2026-05-03 21:13 25.16482 121.50715 40077 ft 429 kts 233°
2026-05-03 21:14 25.12613 121.45712 40084 ft 428 kts 234°
2026-05-03 21:14 25.08779 121.40700 40078 ft 427 kts 234°
2026-05-03 21:15 25.04932 121.35696 40071 ft 428 kts 234°
2026-05-03 21:15 25.01095 121.30727 40074 ft 429 kts 234°
2026-05-03 21:16 24.97227 121.25730 40064 ft 429 kts 234°
2026-05-03 21:16 24.93351 121.20729 40065 ft 429 kts 234°
2026-05-03 21:17 24.90100 121.16537 40060 ft 429 kts 234°
2026-05-03 21:17 24.85590 121.10729 40057 ft 429 kts 234°
2026-05-03 21:18 24.81705 121.05734 40037 ft 430 kts 234°
2026-05-03 21:18 24.77816 121.00731 40020 ft 430 kts 234°
2026-05-03 21:19 24.73931 120.95732 40029 ft 430 kts 234°
2026-05-03 21:19 24.70039 120.90730 40025 ft 430 kts 234°
2026-05-03 21:20 24.66141 120.85732 40022 ft 431 kts 234°
2026-05-03 21:20 24.62243 120.80737 40023 ft 431 kts 234°
2026-05-03 21:21 24.58341 120.75744 40019 ft 431 kts 234°
2026-05-03 21:21 24.54412 120.70760 40015 ft 432 kts 233°
2026-05-03 21:22 24.50245 120.65982 40021 ft 434 kts 231°
2026-05-03 21:22 24.46001 120.61268 40022 ft 434 kts 231°
2026-05-03 21:23 24.41814 120.56557 40027 ft 434 kts 231°
2026-05-03 21:23 24.37621 120.51792 40022 ft 434 kts 231°
2026-05-03 21:24 24.33403 120.46988 40022 ft 435 kts 231°
2026-05-03 21:24 24.29230 120.42242 40018 ft 435 kts 231°
2026-05-03 21:25 24.25026 120.37470 40013 ft 436 kts 231°
2026-05-03 21:25 24.20810 120.32695 40007 ft 436 kts 231°
2026-05-03 21:26 24.16602 120.27916 39990 ft 436 kts 231°
2026-05-03 21:26 24.12387 120.23137 39978 ft 437 kts 231°
2026-05-03 21:27 24.08160 120.18356 39978 ft 437 kts 231°
2026-05-03 21:27 24.03925 120.13573 39976 ft 438 kts 231°
2026-05-03 21:28 23.99682 120.08785 39974 ft 439 kts 231°
2026-05-03 21:28 23.95422 120.03996 39970 ft 439 kts 231°
2026-05-03 21:29 23.91167 119.99198 39970 ft 440 kts 231°
2026-05-03 21:29 23.86900 119.94392 39974 ft 441 kts 231°
2026-05-03 21:30 23.82599 119.89558 39980 ft 441 kts 231°
2026-05-03 21:30 23.78316 119.84751 39987 ft 441 kts 231°
2026-05-03 21:31 23.74033 119.79948 39994 ft 442 kts 230°
2026-05-03 21:31 23.69741 119.75139 39997 ft 442 kts 230°
2026-05-03 21:32 23.65442 119.70329 40002 ft 443 kts 230°
2026-05-03 21:32 23.61153 119.65514 39998 ft 442 kts 232°
2026-05-03 21:33 23.57512 119.60229 40015 ft 437 kts 240°
2026-05-03 21:33 23.54235 119.54654 40014 ft 437 kts 241°
2026-05-03 21:34 23.51008 119.49037 40002 ft 437 kts 241°
2026-05-03 21:34 23.47771 119.43423 39999 ft 438 kts 241°
2026-05-03 21:35 23.44520 119.37819 40000 ft 438 kts 241°
2026-05-03 21:35 23.41870 119.33263 39990 ft 438 kts 241°
2026-05-03 21:36 23.38649 119.27730 39987 ft 438 kts 241°
2026-05-03 21:36 23.35380 119.22121 39983 ft 439 kts 241°
2026-05-03 21:37 23.32111 119.16518 39981 ft 439 kts 241°
2026-05-03 21:37 23.28838 119.10913 39977 ft 439 kts 241°
2026-05-03 21:38 23.25561 119.05308 39977 ft 439 kts 241°
2026-05-03 21:38 23.22283 118.99708 39975 ft 439 kts 241°
2026-05-03 21:39 23.18996 118.94098 39978 ft 440 kts 241°
2026-05-03 21:39 23.15709 118.88494 39976 ft 440 kts 240°
2026-05-03 21:40 23.12420 118.82893 39978 ft 440 kts 240°
2026-05-03 21:40 23.09122 118.77283 39978 ft 440 kts 240°
2026-05-03 21:41 23.05823 118.71678 39982 ft 440 kts 240°
2026-05-03 21:41 23.02520 118.66072 39978 ft 441 kts 240°
2026-05-03 21:42 22.99236 118.60504 39984 ft 441 kts 240°
2026-05-03 21:42 22.95928 118.54901 39982 ft 441 kts 240°
2026-05-03 21:43 22.92608 118.49297 39982 ft 441 kts 240°
2026-05-03 21:43 22.89275 118.43701 39980 ft 442 kts 240°
2026-05-03 21:44 22.85938 118.38104 39980 ft 442 kts 240°
2026-05-03 21:44 22.82601 118.32510 39980 ft 442 kts 240°
2026-05-03 21:45 22.79259 118.26910 39982 ft 442 kts 240°
2026-05-03 21:45 22.75916 118.21316 39982 ft 442 kts 240°
2026-05-03 21:46 22.72568 118.15718 39984 ft 443 kts 240°
2026-05-03 21:46 22.69218 118.10123 39983 ft 443 kts 240°
2026-05-03 21:47 22.65865 118.04531 39982 ft 443 kts 240°
2026-05-03 21:47 22.62509 117.98939 39979 ft 443 kts 240°
2026-05-03 21:48 22.59719 117.94295 39981 ft 443 kts 240°
2026-05-03 21:48 22.56375 117.88686 39983 ft 443 kts 240°
2026-05-03 21:49 22.53048 117.83066 39982 ft 443 kts 240°
2026-05-03 21:49 22.49715 117.77452 39985 ft 444 kts 240°
2026-05-03 21:50 22.46377 117.71846 39980 ft 444 kts 240°
2026-05-03 21:50 22.43026 117.66229 39983 ft 444 kts 240°
2026-05-03 21:51 22.39677 117.60620 39984 ft 444 kts 240°
2026-05-03 21:51 22.36348 117.54996 39981 ft 443 kts 243°
2026-05-03 21:52 22.33941 117.48925 39985 ft 439 kts 257°
2026-05-03 21:52 22.33153 117.42428 39991 ft 437 kts 268°
2026-05-03 21:53 22.33011 117.35903 39991 ft 437 kts 269°
2026-05-03 21:53 22.32940 117.29295 39982 ft 437 kts 269°
2026-05-03 21:54 22.32845 117.22733 39988 ft 437 kts 269°
2026-05-03 21:54 22.32726 117.16213 39985 ft 437 kts 269°
2026-05-03 21:55 22.32597 117.09660 39983 ft 436 kts 269°
2026-05-03 21:55 22.32466 117.03110 39987 ft 436 kts 269°
2026-05-03 21:56 22.32334 116.96564 39994 ft 436 kts 269°
2026-05-03 21:56 22.32199 116.90023 39987 ft 436 kts 269°
2026-05-03 21:57 22.32062 116.83484 39989 ft 435 kts 269°
2026-05-03 21:57 22.31923 116.76958 39990 ft 435 kts 269°
2026-05-03 21:58 22.31781 116.70432 39846 ft 435 kts 269°
2026-05-03 21:58 22.31709 116.67174 39597 ft 434 kts 269°
2026-05-03 21:58 22.31636 116.63912 39124 ft 435 kts 269°
2026-05-03 21:59 22.31563 116.60646 38604 ft 434 kts 269°
2026-05-03 21:59 22.31489 116.57388 37993 ft 435 kts 268°
2026-05-03 21:59 22.31416 116.54120 37394 ft 436 kts 268°
2026-05-03 21:59 22.31341 116.50844 36822 ft 438 kts 268°
2026-05-03 22:00 22.31265 116.47551 36248 ft 440 kts 268°
2026-05-03 22:00 22.31188 116.44239 35696 ft 443 kts 268°
2026-05-03 22:00 22.31108 116.40891 35154 ft 446 kts 268°
2026-05-03 22:00 22.31028 116.37534 34628 ft 449 kts 267°
2026-05-03 22:01 22.30947 116.34150 34106 ft 452 kts 267°
2026-05-03 22:01 22.30864 116.30742 33531 ft 455 kts 267°
2026-05-03 22:01 22.30780 116.27312 32954 ft 458 kts 267°
2026-05-03 22:01 22.30694 116.23873 32383 ft 460 kts 267°
2026-05-03 22:02 22.30607 116.20412 31829 ft 462 kts 267°
2026-05-03 22:02 22.30520 116.16941 31284 ft 464 kts 266°
2026-05-03 22:02 22.30431 116.13456 30756 ft 465 kts 266°
2026-05-03 22:02 22.30342 116.09959 30225 ft 467 kts 266°
2026-05-03 22:03 22.30251 116.06447 29640 ft 468 kts 266°
2026-05-03 22:03 22.30160 116.02982 29038 ft 467 kts 266°
2026-05-03 22:03 22.30068 115.99494 28442 ft 464 kts 266°
2026-05-03 22:03 22.29977 115.96027 27873 ft 459 kts 266°
2026-05-03 22:04 22.29886 115.92602 27293 ft 454 kts 267°
2026-05-03 22:04 22.29795 115.89209 26737 ft 450 kts 267°
2026-05-03 22:04 22.29705 115.85846 26191 ft 447 kts 267°
2026-05-03 22:04 22.29614 115.82505 25645 ft 443 kts 267°
2026-05-03 22:05 22.29524 115.79192 25126 ft 440 kts 267°
2026-05-03 22:05 22.29438 115.75907 24609 ft 437 kts 267°
2026-05-03 22:05 22.29352 115.72644 24102 ft 434 kts 267°
2026-05-03 22:05 22.29266 115.69390 23600 ft 431 kts 267°
2026-05-03 22:06 22.29183 115.66168 23015 ft 428 kts 267°
2026-05-03 22:06 22.29098 115.62968 22412 ft 425 kts 267°
2026-05-03 22:06 22.29011 115.59788 21847 ft 422 kts 267°
2026-05-03 22:06 22.28923 115.56629 21276 ft 419 kts 267°
2026-05-03 22:07 22.28834 115.53491 20720 ft 417 kts 267°
2026-05-03 22:07 22.28747 115.50379 20184 ft 414 kts 267°
2026-05-03 22:07 22.28659 115.47282 19643 ft 411 kts 267°
2026-05-03 22:07 22.28572 115.44202 19119 ft 409 kts 267°
2026-05-03 22:08 22.28484 115.41137 18601 ft 407 kts 267°
2026-05-03 22:08 22.28397 115.38094 18060 ft 405 kts 267°
2026-05-03 22:08 22.28310 115.35065 17472 ft 402 kts 267°
2026-05-03 22:08 22.28223 115.32062 16894 ft 399 kts 267°
2026-05-03 22:09 22.28133 115.29078 16328 ft 396 kts 267°
2026-05-03 22:09 22.28042 115.26121 15774 ft 393 kts 267°
2026-05-03 22:09 22.27951 115.23189 15291 ft 389 kts 267°
2026-05-03 22:10 22.27771 115.17394 14480 ft 383 kts 267°
2026-05-03 22:10 22.27681 115.14519 14252 ft 383 kts 267°
2026-05-03 22:10 22.27591 115.11657 14023 ft 382 kts 267°
2026-05-03 22:10 22.27500 115.08795 13795 ft 380 kts 267°
2026-05-03 22:11 22.27409 115.05951 13544 ft 379 kts 267°
2026-05-03 22:11 22.27318 115.03114 13286 ft 378 kts 267°
2026-05-03 22:11 22.27227 115.00285 13030 ft 376 kts 267°
2026-05-03 22:11 22.27136 114.97465 12784 ft 375 kts 267°
2026-05-03 22:12 22.27045 114.94662 12519 ft 373 kts 267°
2026-05-03 22:12 22.26956 114.91905 12283 ft 359 kts 267°
2026-05-03 22:12 22.26868 114.89281 12154 ft 341 kts 267°
2026-05-03 22:12 22.26787 114.86787 12022 ft 324 kts 267°
2026-05-03 22:13 22.26709 114.84410 11898 ft 310 kts 267°
2026-05-03 22:13 22.26634 114.82131 11708 ft 300 kts 267°
2026-05-03 22:13 22.26559 114.79898 11326 ft 297 kts 267°
2026-05-03 22:13 22.26388 114.77653 11059 ft 305 kts 261°
2026-05-03 22:14 22.25976 114.75385 10995 ft 310 kts 258°
2026-05-03 22:14 22.25516 114.73103 10990 ft 311 kts 258°
2026-05-03 22:14 22.25069 114.70880 10985 ft 294 kts 258°
2026-05-03 22:14 22.24651 114.68790 10981 ft 279 kts 258°
2026-05-03 22:15 22.24246 114.66760 10988 ft 276 kts 258°
2026-05-03 22:15 22.23847 114.64757 10765 ft 272 kts 258°
2026-05-03 22:15 22.23446 114.62747 10242 ft 276 kts 258°
2026-05-03 22:15 22.23041 114.60716 9795 ft 277 kts 258°
2026-05-03 22:16 22.22637 114.58684 9324 ft 277 kts 258°
2026-05-03 22:16 22.22232 114.56654 8864 ft 277 kts 258°
2026-05-03 22:16 22.21828 114.54626 8410 ft 276 kts 258°
2026-05-03 22:16 22.21425 114.52607 7963 ft 275 kts 258°
2026-05-03 22:17 22.21023 114.50593 7550 ft 274 kts 258°
2026-05-03 22:17 22.20621 114.48586 7134 ft 273 kts 258°
2026-05-03 22:17 22.20223 114.46596 6808 ft 269 kts 258°
2026-05-03 22:17 22.19831 114.44642 6544 ft 266 kts 258°
2026-05-03 22:18 22.19546 114.42677 6275 ft 266 kts 268°
2026-05-03 22:18 22.19892 114.40733 6021 ft 266 kts 294°
2026-05-03 22:18 22.21037 114.39177 5890 ft 270 kts 320°
2026-05-03 22:18 22.22708 114.38245 5819 ft 273 kts 338°
2026-05-03 22:19 22.24510 114.37597 5754 ft 273 kts 340°
2026-05-03 22:19 22.26319 114.36965 5653 ft 273 kts 339°
2026-05-03 22:19 22.28121 114.36322 5562 ft 273 kts 339°
2026-05-03 22:19 22.29920 114.35671 5488 ft 272 kts 339°
2026-05-03 22:20 22.31713 114.35017 5395 ft 272 kts 339°
2026-05-03 22:20 22.33506 114.34358 5311 ft 272 kts 339°
2026-05-03 22:20 22.35297 114.33700 5228 ft 272 kts 339°
2026-05-03 22:20 22.37089 114.33039 5139 ft 272 kts 339°
2026-05-03 22:21 22.38814 114.32228 5050 ft 270 kts 326°
2026-05-03 22:21 22.40107 114.30813 4964 ft 265 kts 299°
2026-05-03 22:21 22.40714 114.29001 4891 ft 250 kts 281°
2026-05-03 22:21 22.41032 114.27205 4802 ft 237 kts 279°
2026-05-03 22:22 22.41317 114.25496 4717 ft 225 kts 279°
2026-05-03 22:22 22.41593 114.23890 4643 ft 212 kts 280°
2026-05-03 22:22 22.41855 114.22392 4586 ft 199 kts 280°
2026-05-03 22:22 22.42110 114.20950 4515 ft 188 kts 280°
2026-05-03 22:23 22.42170 114.19568 4494 ft 188 kts 261°
2026-05-03 22:23 22.41798 114.18222 4489 ft 187 kts 251°
2026-05-03 22:23 22.41359 114.16899 4485 ft 187 kts 251°
2026-05-03 22:23 22.40926 114.15571 4518 ft 187 kts 252°
2026-05-03 22:24 22.40503 114.14246 4532 ft 188 kts 252°
2026-05-03 22:24 22.40084 114.12928 4363 ft 183 kts 252°
2026-05-03 22:24 22.39671 114.11634 4097 ft 182 kts 252°
2026-05-03 22:24 22.39254 114.10336 3766 ft 183 kts 252°
2026-05-03 22:25 22.38846 114.09065 3457 ft 175 kts 252°
2026-05-03 22:25 22.38457 114.07852 3211 ft 166 kts 252°
2026-05-03 22:25 22.38089 114.06701 2984 ft 157 kts 252°
2026-05-03 22:25 22.37744 114.05629 2760 ft 145 kts 252°
2026-05-03 22:26 22.37420 114.04617 2597 ft 142 kts 253°
2026-05-03 22:26 22.37096 114.03602 2415 ft 143 kts 253°
2026-05-03 22:26 22.36771 114.02588 2242 ft 142 kts 253°
2026-05-03 22:26 22.36449 114.01584 2049 ft 141 kts 252°
2026-05-03 22:27 22.36125 114.00575 1852 ft 142 kts 253°
2026-05-03 22:27 22.35801 113.99563 1671 ft 143 kts 252°
2026-05-03 22:27 22.35475 113.98550 1452 ft 142 kts 253°
2026-05-03 22:27 22.35153 113.97543 1268 ft 141 kts 252°
2026-05-03 22:28 22.34831 113.96541 1078 ft 142 kts 253°
2026-05-03 22:28 22.34509 113.95543 827 ft 141 kts 252°
2026-05-03 22:28 22.34188 113.94549 624 ft 140 kts 252°
2026-05-03 22:28 22.33862 113.93566 470 ft 139 kts 252°
2026-05-03 22:29 22.33545 113.92567 315 ft 141 kts 252°
2026-05-03 22:29 22.33235 113.91569 130 ft 140 kts 254°
2026-05-03 22:29 22.32930 113.90600 43 ft 118 kts 251°
2026-05-03 22:29 22.32736 113.90006 43 ft 51 kts 250°
2026-05-03 22:30 22.32616 113.89677 43 ft 35 kts 238°
2026-05-03 22:30 22.32506 113.89543 43 ft 19 kts 221°
2026-05-03 22:30 22.32422 113.89488 43 ft 9 kts 183°
2026-05-03 22:30 22.32360 113.89510 43 ft 11 kts 159°
2026-05-03 22:31 22.32325 113.89574 43 ft 12 kts 82°
2026-05-03 22:31 22.32353 113.89667 43 ft 14 kts 70°
2026-05-03 22:31 22.32389 113.89779 43 ft 17 kts 70°
2026-05-03 22:31 22.32431 113.89910 43 ft 20 kts 71°
2026-05-03 22:32 22.32479 113.90058 44 ft 22 kts 71°
2026-05-03 22:32 22.32523 113.90193 43 ft 18 kts 70°
2026-05-03 22:32 22.32542 113.90288 43 ft 11 kts 105°
2026-05-03 22:32 22.32476 113.90329 43 ft 13 kts 163°
2026-05-03 22:33 22.32380 113.90364 43 ft 16 kts 160°
2026-05-03 22:33 22.32264 113.90407 43 ft 19 kts 161°
2026-05-03 22:33 22.32128 113.90459 43 ft 22 kts 161°
2026-05-03 22:33 22.31974 113.90516 43 ft 25 kts 161°
2026-05-03 22:34 22.31804 113.90581 43 ft 25 kts 161°
2026-05-03 22:34 22.31724 113.90611 43 ft 11 kts 161°
2026-05-03 22:34 22.31659 113.90643 43 ft 9 kts 133°
2026-05-03 22:34 22.31661 113.90715 41 ft 11 kts 69°
2026-05-03 22:35 22.31693 113.90806 43 ft 14 kts 69°
2026-05-03 22:35 22.31730 113.90917 43 ft 17 kts 70°
2026-05-03 22:35 22.31772 113.91048 43 ft 20 kts 71°
2026-05-03 22:35 22.31821 113.91197 43 ft 22 kts 70°
2026-05-03 22:36 22.31855 113.91304 43 ft 24 kts 71°
2026-05-03 22:36 22.31911 113.91479 43 ft 26 kts 71°
2026-05-03 22:36 22.31972 113.91667 19 ft 28 kts 70°
2026-05-03 22:36 22.32038 113.91869 43 ft 29 kts 71°
2026-05-03 22:37 22.32106 113.92081 44 ft 31 kts 71°
2026-05-03 22:37 22.32178 113.92304 44 ft 32 kts 71°
2026-05-03 22:37 22.32241 113.92500 43 ft 19 kts 71°
2026-05-03 22:37 22.32262 113.92566 43 ft 10 kts 71°
2026-05-03 22:38 22.32277 113.92635 43 ft 9 kts 98°
2026-05-03 22:38 22.32224 113.92672 43 ft 11 kts 164°
2026-05-03 22:38 22.32143 113.92700 43 ft 14 kts 161°
2026-05-03 22:38 22.32038 113.92739 42 ft 18 kts 160°
2026-05-03 22:39 22.31955 113.92771 43 ft 11 kts 160°
2026-05-03 22:39 22.31879 113.92774 43 ft 12 kts 216°
2026-05-03 22:39 22.31844 113.92687 43 ft 14 kts 250°
2026-05-03 22:39 22.31808 113.92575 43 ft 17 kts 251°
2026-05-03 22:40 22.31765 113.92441 43 ft 20 kts 251°
2026-05-03 22:40 22.31715 113.92286 43 ft 23 kts 251°
2026-05-03 22:40 22.31667 113.92137 43 ft 14 kts 250°
2026-05-03 22:40 22.31637 113.92049 43 ft 11 kts 242°
2026-05-03 22:41 22.31572 113.92038 43 ft 11 kts 167°
2026-05-03 22:41 22.31487 113.92070 43 ft 14 kts 160°
2026-05-03 22:41 22.31383 113.92110 43 ft 17 kts 161°
2026-05-03 22:41 22.31259 113.92156 43 ft 20 kts 161°
2026-05-03 22:42 22.31118 113.92209 43 ft 23 kts 160°
2026-05-03 22:42 22.30965 113.92267 43 ft 15 kts 161°
2026-05-03 22:42 22.30944 113.92275 43 ft 3 kts 161°
2026-05-03 22:42 22.30910 113.92288 43 ft 7 kts 158°
2026-05-03 22:43 22.30889 113.92332 43 ft 7 kts 84°
2026-05-03 22:43 22.30927 113.92370 43 ft 9 kts 31°
2026-05-03 22:43 22.30975 113.92398 43 ft 5 kts 36°
2026-05-03 22:43 22.30980 113.92440 43 ft 7 kts 104°
2026-05-03 22:44 22.30965 113.92470 43 ft 0 kts 119°
2026-05-03 22:44 22.30962 113.92475 43 ft 2 kts 118°
2026-05-03 22:44 22.30957 113.92487 43 ft 0 kts 116°
2026-05-03 22:44 22.30955 113.92492 43 ft 1 kts 116°
2026-05-03 22:45 22.30954 113.92494 40 ft 0 kts 116°